Regional Weather Roundup
Issued by NWS

Home | Current Version | Previous Version | Text Only | Print | Product List | Glossary On
Versions: 1 2 3 4 5 6 7 8 9 10 11 12 13 14 15 16 17 18 19 20 21 22 23 24 25 26 27 28
000
ASUS45 KCYS 231810
RWRWY

WYOMING REGIONAL WEATHER ROUNDUP
NATIONAL WEATHER SERVICE CHEYENNE WY
1200 PM MDT MON OCT 23 2017

NOTE:  "FAIR" INDICATES FEW OR NO CLOUDS BELOW 12,000 FEET
WITH NO SIGNIFICANT WEATHER AND/OR OBSTRUCTIONS TO VISIBILITY.

WYZ001-231900-
YELLOWSTONE NATIONAL PARK

CITY           SKY/WX    TMP DP  RH WIND       PRES   REMARKS
LK YELLOWSTONE   N/A     36  19  50 MISG      30.60R
6HR MIN TEMP:  24; 6HR MAX TEMP:  38;

W YELLOWSTONE  NOT AVBL

$$
WYZ002>013-054>058-071-098>099-231900-
NORTHERN WYOMING

CITY           SKY/WX    TMP DP  RH WIND       PRES   REMARKS
JACKSON        FAIR      46  20  35 SW7       30.59R
CODY           FAIR      52  16  24 NW21G29   30.49S
GREYBULL       FAIR      55  19  24 NW25G32   30.47R
6HR MIN TEMP:  43; 6HR MAX TEMP:  55;

WORLAND        FAIR      54  23  30 N12       30.47F
6HR MIN TEMP:  33; 6HR MAX TEMP:  54;

SHERIDAN       PTSUNNY   50  25  37 NW23G35   30.45R
6HR MIN TEMP:  41; 6HR MAX TEMP:  52;

BUFFALO        FAIR      49  19  30 N32G45    30.44R
6HR MIN TEMP:  39; 6HR MAX TEMP:  50;

GILLETTE       FAIR      52  21  29 NW30G44   30.41R
6HR MIN TEMP:  40; 6HR MAX TEMP:  52;

HULETT         FAIR      50  21  32 NW18G29   30.38R
NEWCASTLE      FAIR      50  18  27 NW25G36   30.38S

$$
WYZ014>020-022>026-101>103-231900-
CENTRAL WYOMING

CITY           SKY/WX    TMP DP  RH WIND       PRES   REMARKS
BIG PINEY      FAIR      52  22  30 NW16      30.55R
6HR MIN TEMP:  35; 6HR MAX TEMP:  52;

PINEDALE       FAIR      46  18  31 NW25G32   30.56R
DUBOIS         FAIR      41  19  42 NW14G25   30.53S
LANDER         FAIR      52  24  33 CALM      30.48R
6HR MIN TEMP:  38; 6HR MAX TEMP:  52;

RIVERTON       FAIR      50  21  32 VRB3      30.49R
6HR MIN TEMP:  35; 6HR MAX TEMP:  51;

CASPER         FAIR      50  17  27 NW14G22   30.47R
6HR MIN TEMP:  40; 6HR MAX TEMP:  50;

DOUGLAS        FAIR      51  19  28 NW22G30   30.44F
6HR MIN TEMP:  37; 6HR MAX TEMP:  51;


$$
WYZ021-027>030-104>119-231900-
SOUTHERN WYOMING

CITY           SKY/WX    TMP DP  RH WIND       PRES   REMARKS
EVANSTON       FAIR      52  22  30 SW21      30.59S
6HR MIN TEMP:  39; 6HR MAX TEMP:  52;

KEMMERER       FAIR      46  25  42 W17G23    30.59R
FORT BRIDGER   FAIR      53  27  36 W18G30    30.61R
ROCK SPRINGS   FAIR      50  24  36 W17G28    30.54R
6HR MIN TEMP:  40; 6HR MAX TEMP:  51;

DIXON          MOCLDY    54  29  39 NW16      30.54S
RAWLINS        FAIR      49  22  34 NW13      30.49F
6HR MIN TEMP:  39; 6HR MAX TEMP:  50;

SARATOGA       MOCLDY    50  28  43 W20G32    30.50S
LARAMIE        CLOUDY    42  21  43 N15       30.45S
6HR MIN TEMP:  37; 6HR MAX TEMP:  45;

CHEYENNE       FAIR      44  22  41 N21G29    30.41R
6HR MIN TEMP:  33; 6HR MAX TEMP:  45; 6HR PCP: TRACE;

TORRINGTON     FAIR      53  16  23 NW28G36   30.39R
6HR MIN TEMP:  45; 6HR MAX TEMP:  53; 6HR PCP: TRACE;

PINE BLUFFS    CLOUDY    48  23  37 N22G32    30.43R

$$




USA.gov is the U.S. government's official web portal to all federal, state and local government web resources and services.